Lid_Strength_Index
8 12 14 12 11 11 12 14 15 13 10 11 12 11 10 8 9 10 7 7 7 7 7 6 6 7 2 1 1 1 2 1 1 1 1 1 2 1 0 0 -0 -0 0 -0
11 14 10 9 10 11 12 14 15 12 10 11 12 12 10 9 10 11 11 8 7 8 9 9 8 8 7 7 5 2 1 1 1 1 1 1 1 1 0 0 0 0 0 0
13 11 9 10 11 13 13 14 14 14 12 11 12 14 12 10 10 10 10 9 8 9 10 10 11 11 9 9 7 6 4 2 1 0 0 1 0 0 1 1 1 0 -0 -0
12 8 10 11 13 11 15 11 11 13 14 18 12 19 14 11 11 12 11 12 12 11 11 11 11 12 12 10 8 7 7 5 4 2 1 1 2 3 1 1 0 0 -0 -0
14 11 11 13 12 11 14 10 11 12 14 14 15 17 14 11 13 13 12 13 13 13 13 13 12 12 12 11 10 9 8 7 7 5 4 1 2 1 1 1 1 1 0 -0
11 8 9 11 9 10 9 11 11 11 13 19 15 16 17 14 12 13 13 13 14 14 14 14 13 13 12 11 11 10 10 9 8 7 7 6 5 3 3 3 2 2 1 2
12 12 9 9 12 10 11 13 19 20 20 21 14 16 17 14 13 11 14 14 14 14 15 14 15 14 14 13 12 11 11 11 10 10 9 9 8 7 6 6 4 3 2 3
16 18 12 9 11 13 12 13 18 23 22 20 15 18 17 13 12 11 13 14 14 15 15 15 15 15 14 14 14 12 11 11 10 10 11 10 9 9 9 9 8 8 7 7
16 16 10 9 8 9 13 15 12 16 19 19 17 16 14 13 13 13 14 13 14 15 15 15 15 16 15 15 14 14 13 12 11 10 11 11 11 11 11 10 10 9 9 9
12 17 12 10 8 9 11 11 16 16 23 22 18 18 18 15 14 14 14 14 14 15 15 15 15 15 16 15 14 14 13 13 12 11 11 11 12 12 12 12 12 12 12 11
10 13 14 11 13 13 13 14 13 14 16 19 20 19 13 13 13 14 14 14 14 15 15 15 15 15 15 15 15 14 14 14 13 13 12 13 13 12 13 13 13 13 12 12
10 13 16 15 11 10 10 12 12 17 19 17 17 17 11 12 12 13 14 14 14 15 15 15 15 15 15 15 14 14 14 14 14 13 13 13 14 13 14 14 14 14 14 13
10 15 18 16 13 11 13 11 11 12 13 18 20 18 11 12 12 12 14 14 15 15 16 16 15 16 15 15 15 14 14 14 13 13 14 14 14 15 15 15 15 14 15 15
8 13 17 18 16 13 15 12 12 14 18 17 17 17 14 13 13 13 13 14 15 15 15 15 15 16 16 16 15 15 14 14 14 14 15 15 15 15 15 15 15 15 15 15
10 17 14 12 12 12 13 13 13 15 17 19 16 16 14 14 13 13 12 13 14 15 15 15 15 16 16 16 16 15 15 15 15 16 16 16 16 16 16 15 15 15 15 15
10 18 15 17 12 12 14 13 13 15 15 15 15 15 12 11 11 12 12 12 13 14 14 15 15 16 16 16 16 16 16 16 16 16 17 17 16 17 17 16 16 16 15 15
14 17 18 22 16 15 17 15 13 12 12 14 17 13 11 12 12 12 11 11 11 12 13 14 15 15 16 17 16 16 16 16 17 17 17 17 17 18 18 17 17 17 16 16
17 17 17 21 21 23 15 14 15 13 11 12 12 12 12 11 11 11 11 10 11 11 12 13 14 15 16 16 16 16 16 17 17 17 17 17 17 17 17 16 16 16 16 16
13 15 20 20 21 19 17 16 15 15 14 12 12 13 12 11 11 12 12 11 11 11 11 12 13 14 14 15 15 16 16 16 16 16 16 16 16 16 16 16 16 16 16 16
13 13 16 20 21 24 17 16 14 13 17 12 12 13 12 12 14 13 12 12 12 12 12 13 13 14 14 15 15 15 16 16 16 16 16 16 16 16 17 17 17 16 16 16
21 22 21 20 22 19 16 13 13 19 17 13 13 13 12 14 14 13 13 13 13 13 13 13 14 14 15 15 15 15 16 16 16 16 16 16 16 16 16 16 16 16 16 17
19 21 22 23 25 23 15 13 15 13 13 13 13 14 13 13 14 14 14 13 13 13 13 13 14 14 15 14 15 15 16 16 16 17 17 17 17 16 16 17 17 17 17 18
19 17 19 17 17 14 14 13 13 12 12 13 13 13 13 13 15 14 15 15 15 15 14 15 15 15 15 15 15 15 16 16 17 18 19 19 18 16 16 17 17 18 18 18
15 16 17 18 15 15 14 13 13 12 12 12 12 12 12 13 15 15 16 15 16 17 18 18 18 17 17 17 15 15 17 18 19 20 20 20 19 19 19 16 16 17 18 18
15 15 16 16 15 16 15 13 12 12 12 12 13 13 13 13 13 14 15 16 17 18 19 19 19 19 18 18 18 17 14 15 16 16 17 17 17 18 18 17 17 16 16 16
15 15 15 15 11 12 12 14 14 15 15 14 14 15 15 14 13 14 15 16 16 17 18 18 18 18 18 18 18 18 16 14 15 16 16 16 16 16 16 17 18 14 13 13